Weather History for Smithfield, NC

Change the Weather History Date:

Tuesday, February 19, 2013

  Actual Average Record
Temperature  
Mean Temperature 42 °F -  
Max Temperature 55 °F 56 °F 76 °F (1976)
Min Temperature 28 °F 33 °F 11 °F (1979)
Degree Days  
Heating Degree Days 24    
Moisture  
Dew Point 40 °F    
Average Humidity 89    
Maximum Humidity 100    
Minimum Humidity 67    
Precipitation  
Precipitation 0.06 in - - ()
Sea Level Pressure  
Sea Level Pressure 30.04 in    
Wind  
Wind Speed 3 mph (SW)    
Max Wind Speed 16 mph    
Max Gust Speed 31 mph    
Visibility 10 miles    
Events      
Averages and records for this station are not official NWS values.
T = Trace of Precipitation, MM = Missing Value Source: NWS Daily Summary

Daily Weather History Graph

Daily Weather History Graph

Search for Another Location

Airport:

Trip Planner

Search our weather history database for the weather conditions in past years. The results will help you decide how hot, cold, wet, or windy it might be!

Date:

Astronomy

Feb. 19, 2013 Rise Set
Actual Time 6:55 AM EST 5:59 PM EST
Civil Twilight 6:29 AM EST 6:25 PM EST
Nautical Twilight 5:59 AM EST 6:55 PM EST
Astronomical Twilight 5:30 AM EST 7:24 PM EST
Moon 12:36 PM EST (2/19) 2:19 AM EST (2/19)
Length of Visible Light 11h 56m
Length of Day
11h 04m
Waxing Gibbous, 67% of the Moon is Illuminated
Feb 19
Waxing Gibbous
Feb 25
Full
Mar 4
Last Quarter
Mar 11
New
Mar 19
First Quarter

Hourly Weather History & Observations

Time (EST) Temp. Windchill Dew Point Humidity Pressure Visibility Wind Dir Wind Speed Gust Speed Precip Events Conditions
12:15 AM 32.0 °F - 28.4 °F 87% 30.28 in 10.0 mi Calm Calm - N/A   Clear
12:35 AM 30.2 °F - 28.4 °F 93% 30.26 in 10.0 mi Calm Calm - N/A   Clear
12:55 AM 30.2 °F - 26.6 °F 86% 30.26 in 10.0 mi Calm Calm - N/A   Clear
1:15 AM 30.2 °F - 26.6 °F 86% 30.25 in 10.0 mi Calm Calm - N/A   Clear
1:35 AM 28.4 °F - 26.6 °F 93% 30.24 in 10.0 mi Calm Calm - N/A   Clear
1:55 AM 28.4 °F - 28.4 °F 100% 30.24 in 10.0 mi Calm Calm - N/A   Clear
2:15 AM 28.4 °F - 28.4 °F 100% 30.23 in 10.0 mi Calm Calm - N/A   Mostly Cloudy
2:35 AM 30.2 °F - 28.4 °F 93% 30.22 in 10.0 mi Calm Calm - N/A   Overcast
2:55 AM 30.2 °F - 28.4 °F 93% 30.21 in 10.0 mi Calm Calm - N/A   Overcast
3:15 AM 32.0 °F - 28.4 °F 87% 30.20 in 10.0 mi Calm Calm - N/A   Overcast
3:35 AM 32.0 °F - 30.2 °F 93% 30.19 in 10.0 mi Calm Calm - N/A   Overcast
3:55 AM 32.0 °F - 30.2 °F 93% 30.19 in 10.0 mi Calm Calm - N/A   Overcast
4:15 AM 32.0 °F - 30.2 °F 93% 30.18 in 10.0 mi Calm Calm - N/A   Mostly Cloudy
4:35 AM 32.0 °F - 30.2 °F 93% 30.17 in 10.0 mi Calm Calm - N/A   Scattered Clouds
4:55 AM 30.2 °F - 30.2 °F 100% 30.17 in 10.0 mi Calm Calm - N/A   Clear
5:15 AM 30.2 °F - 28.4 °F 93% 30.16 in 10.0 mi Calm Calm - N/A   Clear
5:35 AM 30.2 °F - 28.4 °F 93% 30.15 in 10.0 mi Calm Calm - N/A   Clear
5:55 AM 30.2 °F - 30.2 °F 100% 30.15 in 10.0 mi Calm Calm - N/A   Scattered Clouds
6:15 AM 30.2 °F - 30.2 °F 100% 30.15 in 10.0 mi Calm Calm - N/A   Scattered Clouds
6:35 AM 30.2 °F - 30.2 °F 100% 30.14 in 10.0 mi Calm Calm - N/A   Scattered Clouds
6:55 AM 32.0 °F - 30.2 °F 93% 30.13 in 10.0 mi Calm Calm - N/A   Mostly Cloudy
7:15 AM 32.0 °F - 32.0 °F 100% 30.12 in 10.0 mi Calm Calm - N/A   Overcast
7:35 AM 32.0 °F - 32.0 °F 100% 30.13 in 10.0 mi Calm Calm - N/A   Overcast
7:55 AM 33.8 °F - 32.0 °F 93% 30.13 in 10.0 mi Calm Calm - N/A   Overcast
8:15 AM 35.6 °F - 33.8 °F 93% 30.13 in 10.0 mi Calm Calm - N/A   Mostly Cloudy
8:35 AM 37.4 °F - 33.8 °F 87% 30.11 in 10.0 mi Calm Calm - N/A   Scattered Clouds
8:55 AM 39.2 °F - 33.8 °F 81% 30.10 in 10.0 mi Calm Calm - N/A   Mostly Cloudy
9:15 AM 42.8 °F 39.3 °F 37.4 °F 81% 30.08 in 10.0 mi South 5.8 mph - N/A   Mostly Cloudy
9:35 AM 44.6 °F 42.2 °F 39.2 °F 81% 30.08 in 10.0 mi South 4.6 mph - N/A   Scattered Clouds
9:55 AM 50.0 °F - 41.0 °F 71% 30.08 in 10.0 mi South 8.1 mph - N/A   Mostly Cloudy
10:15 AM 51.8 °F - 42.8 °F 71% 30.07 in 10.0 mi South 10.4 mph - N/A   Mostly Cloudy
10:35 AM 53.6 °F - 42.8 °F 67% 30.05 in 10.0 mi South 10.4 mph 18.4 mph N/A   Overcast
10:55 AM 53.6 °F - 42.8 °F 67% 30.05 in 10.0 mi SSW 9.2 mph 17.3 mph N/A   Overcast
11:15 AM 51.8 °F - 46.4 °F 82% 30.04 in 10.0 mi SW 8.1 mph - 0.01 in   Overcast
11:35 AM 51.8 °F - 46.4 °F 82% 30.04 in 10.0 mi SW 5.8 mph - 0.02 in   Overcast
11:55 AM 51.8 °F - 46.4 °F 82% 30.03 in 10.0 mi SSW 9.2 mph 17.3 mph 0.03 in   Overcast
12:15 PM 51.8 °F - 48.2 °F 88% 30.01 in 10.0 mi SSW 11.5 mph - 0.01 in   Overcast
12:35 PM 51.8 °F - 48.2 °F 88% 29.99 in 10.0 mi SSW 12.7 mph 20.7 mph 0.02 in   Overcast
12:55 PM 51.8 °F - 50.0 °F 94% 29.98 in 10.0 mi SW 12.7 mph 19.6 mph 0.02 in   Overcast
1:15 PM 53.6 °F - 50.0 °F 88% 29.96 in 10.0 mi SSW 13.8 mph 21.9 mph N/A   Overcast
1:35 PM 53.6 °F - 50.0 °F 88% 29.93 in 10.0 mi SW 10.4 mph 24.2 mph N/A   Overcast
1:55 PM 55.4 °F - 50.0 °F 82% 29.92 in 10.0 mi SSW 16.1 mph 25.3 mph N/A   Overcast
2:15 PM 55.4 °F - 48.2 °F 77% 29.90 in 10.0 mi SW 16.1 mph 31.1 mph N/A   Overcast
2:35 PM 55.4 °F - 50.0 °F 82% 29.89 in 10.0 mi SSW 16.1 mph 25.3 mph N/A   Overcast
2:55 PM 55.4 °F - 50.0 °F 82% 29.89 in 7.0 mi SSW 13.8 mph 27.6 mph N/A   Overcast
3:15 PM 53.6 °F - 51.8 °F 94% 29.89 in 3.0 mi SSW 11.5 mph 27.6 mph N/A   Overcast
3:35 PM 53.6 °F - 53.6 °F 100% 29.89 in 4.0 mi SSW 10.4 mph 18.4 mph 0.01 in   Overcast
3:55 PM 53.6 °F - 53.6 °F 100% 29.88 in 5.0 mi SSW 12.7 mph 21.9 mph 0.01 in   Overcast
4:15 PM 53.6 °F - 53.6 °F 100% 29.87 in 5.0 mi SSW 13.8 mph 19.6 mph N/A   Overcast
4:35 PM 53.6 °F - 53.6 °F 100% 29.86 in 10.0 mi SSW 11.5 mph 18.4 mph N/A   Overcast
4:55 PM 53.6 °F - 51.8 °F 94% 29.87 in 10.0 mi SW 10.4 mph 17.3 mph N/A   Overcast
5:15 PM 53.6 °F - 51.8 °F 94% 29.87 in 10.0 mi SW 12.7 mph 18.4 mph N/A   Overcast
5:35 PM 53.6 °F - 51.8 °F 94% 29.87 in 10.0 mi SW 9.2 mph 17.3 mph N/A   Overcast
5:55 PM 53.6 °F - 50.0 °F 88% 29.88 in 10.0 mi WSW 5.8 mph - N/A   Overcast
6:15 PM 51.8 °F - 50.0 °F 94% 29.89 in 10.0 mi WSW 6.9 mph - N/A   Overcast
7:15 PM 51.8 °F - 46.4 °F 82% 29.92 in 10.0 mi WSW 4.6 mph - N/A   Overcast
7:35 PM 51.8 °F - 46.4 °F 82% 29.93 in 10.0 mi WNW 9.2 mph - N/A   Overcast
7:55 PM 50.0 °F - 44.6 °F 82% 29.94 in 10.0 mi West 6.9 mph 16.1 mph N/A   Mostly Cloudy
8:15 PM 48.2 °F - 42.8 °F 82% 29.94 in 10.0 mi WSW 5.8 mph - N/A   Scattered Clouds
8:35 PM 46.4 °F 43.5 °F 42.8 °F 87% 29.95 in 10.0 mi West 5.8 mph - N/A   Clear
8:55 PM 46.4 °F 43.5 °F 41.0 °F 81% 29.95 in 10.0 mi West 5.8 mph - N/A   Clear
9:15 PM 46.4 °F 43.5 °F 41.0 °F 81% 29.96 in 10.0 mi WSW 5.8 mph - N/A   Clear
9:35 PM 46.4 °F 44.3 °F 41.0 °F 81% 29.96 in 10.0 mi WSW 4.6 mph - N/A   Clear
9:55 PM 44.6 °F - 41.0 °F 87% 29.96 in 10.0 mi Calm Calm - N/A   Clear
10:15 PM 44.6 °F - 41.0 °F 87% 29.96 in 10.0 mi Calm Calm - N/A   Clear
10:35 PM 42.8 °F - 41.0 °F 93% 29.96 in 10.0 mi Calm Calm - N/A   Clear
10:55 PM 41.0 °F - 39.2 °F 93% 29.96 in 10.0 mi Calm Calm - N/A   Clear
11:15 PM 37.4 °F - 37.4 °F 100% 29.96 in 10.0 mi Calm Calm - N/A   Clear
11:35 PM 35.6 °F - 35.6 °F 100% 29.96 in 10.0 mi Calm Calm - N/A   Clear
11:55 PM 35.6 °F - 35.6 °F 100% 29.96 in 7.0 mi Calm Calm - N/A   Clear